Weather in Novopokrovka

Ukraine / Dnipropetrovsk Region     48°03′21″N   34°36′12″E
temp.,
°C
wind,
m/s
gust,
m/s
humid.,
%
clouds,
%
prec.,
mm/h
press.,
hPa
HPBL,
m
22 january, sat
sat2223:00−5wsw6128431 0.0 1011362
02:00−6wsw512885 0.0 1011328
05:00−6sw511935 0.0 1011269
08:00−7sw5109584 0.0 1012273
11:00−3wsw698078 0.0 1012565
14:00−2sw6774100 0.0 1013959
17:00−3wsw369199 0.1 1014202
20:00−4wsw2492100 0.1 101599
23 january, sun
sun2323:00−7ssw119342 0.0 101610
02:00−8s119455 0.0 101610
05:00−7n1193100 0.0 101710
08:00−7ene2392100 0.0 101961
11:00−3ne4578100 0.0 1019348
14:00−2ne5777100 0.0 1020636
17:00−4nne61189100 0.0 1021416
20:00−5nne71389100 0.0 1022481
24 january, mon
mon2423:00−5n81586100 0.0 1022542
02:00−6n91793100 0.2 1021611
05:00−5nne81594100 0.9 1020602
08:00−5nne81394100 2.4 1021530
11:00−3nne81291100 0.7 1021536
14:00−1ne5892100 1.0 1022631
17:00−3ne5996100 0.3 1023453
20:00−5nne5996100 0.5 1024338
25 january, tue
tue2523:00−5nne5796100 0.8 1024286
02:00−6n4696100 2.2 1023269
05:00−6n3696100 1.6 1023284
08:00−6n3496100 2.3 1023229
11:00−5n1193100 0.7 1023281
14:00−4w2294100 1.6 1022339
17:00−5wsw2297100 0.9 1022126
20:00−6wsw2397100 1.3 1022113
26 january, wed
wed2623:00−6wsw1297100 0.8 1021126
02:00−7sw2397100 1.0 102168
05:00−8w1197100 0.4 102039
08:00−9nnw009759 0.6 102017
11:00−6sw1289100 0.0 1020286
14:00−5nw2186100 0.1 1019353
17:00−10nnw229691 0.0 102018
20:00−11n349879 0.1 102150